Milwaukee Timmerman, WI

5:21 PM CST on December 11, 2019 (GMT -0600)
Timmerman

Weather History for KMWC - July, 2019

Change the Weather History Date:

Sunday, July 21, 2019

  Actual Average Record
Temperature  
Mean Temperature 72 °F -  
Max Temperature 80 °F 83 °F 100 °F (1983)
Min Temperature 64 °F 62 °F 44 °F (1950)
Cooling Degree Days 7    
Growing Degree Days 22 (Base 50)    
Moisture  
Dew Point 56 °F    
Average Humidity 66    
Maximum Humidity 88    
Minimum Humidity 28    
Precipitation  
Precipitation 0.00 in - - ()
Sea Level Pressure  
Sea Level Pressure 29.99 in    
Wind  
Wind Speed 4 mph (NE)    
Max Wind Speed 12 mph    
Max Gust Speed 17 mph    
Visibility 10 miles    
Events      
Averages and records for this station are not official NWS values.
T = Trace of Precipitation, MM = Missing Value Source: NWS Daily Summary

Daily Weather History Graph

Daily Weather History Graph

Search for Another Location

Airport or City:

Astronomy

Jul. 21, 2019 Rise Set
Actual Time 5:31 AM CDT 8:25 PM CDT
Civil Twilight 4:57 AM CDT 8:58 PM CDT
Nautical Twilight 4:15 AM CDT 9:41 PM CDT
Astronomical Twilight 3:25 AM CDT 10:30 PM CDT
Moon 11:12 PM CDT (7/21) 9:57 AM CDT (7/21)
Length of Visible Light 16h 00m
Length of Day
14h 53m
Waning Gibbous, 80% of the Moon is Illuminated
Jul 21
Waning Gibbous
Jul 24
Last Quarter
Jul 31
New
Aug 7
First Quarter
Aug 15
Full

Hourly Weather History & Observations

Time (CDT) Temp. Dew Point Humidity Pressure Visibility Wind Dir Wind Speed Gust Speed Precip Events Conditions
12:15 AM 66.2 °F 62.6 °F 88% 29.94 in 10.0 mi NE 5.8 mph - N/A   Overcast
12:35 AM 68.0 °F 62.6 °F 83% 29.94 in 10.0 mi NNE 6.9 mph - N/A   Overcast
12:55 AM 68.0 °F 62.6 °F 83% 29.95 in 10.0 mi Calm Calm - N/A   Overcast
1:15 AM 68.0 °F 62.6 °F 83% 29.96 in 10.0 mi Calm Calm - N/A   Overcast
1:35 AM 68.0 °F 60.8 °F 78% 29.95 in 10.0 mi Calm Calm - N/A   Overcast
1:55 AM 68.0 °F 60.8 °F 78% 29.95 in 10.0 mi Calm Calm - N/A   Mostly Cloudy
2:15 AM 68.0 °F 60.8 °F 78% 29.94 in 10.0 mi Calm Calm - N/A   Mostly Cloudy
2:35 AM 68.0 °F 60.8 °F 78% 29.94 in 10.0 mi NE 3.5 mph - N/A   Overcast
2:55 AM 66.2 °F 60.8 °F 83% 29.93 in 10.0 mi North 3.5 mph - N/A   Scattered Clouds
3:15 AM 66.2 °F 60.8 °F 83% 29.94 in 10.0 mi North 3.5 mph - N/A   Clear
3:35 AM 66.2 °F 60.8 °F 83% 29.94 in 10.0 mi Calm Calm - N/A   Scattered Clouds
3:55 AM 68.0 °F 60.8 °F 78% 29.95 in 10.0 mi NE 3.5 mph - N/A   Overcast
4:15 AM 68.0 °F 60.8 °F 78% 29.94 in 10.0 mi NE 3.5 mph - N/A   Overcast
4:35 AM 68.0 °F 60.8 °F 78% 29.95 in 10.0 mi Calm Calm - N/A   Mostly Cloudy
4:55 AM 66.2 °F 60.8 °F 83% 29.96 in 10.0 mi Calm Calm - N/A   Scattered Clouds
5:15 AM 66.2 °F 60.8 °F 83% 29.97 in 10.0 mi Calm Calm - N/A   Mostly Cloudy
5:35 AM 68.0 °F 60.8 °F 78% 29.98 in 10.0 mi NNE 4.6 mph - N/A   Overcast
5:55 AM 68.0 °F 60.8 °F 78% 29.98 in 10.0 mi ENE 3.5 mph - N/A   Overcast
6:15 AM 68.0 °F 59.0 °F 73% 29.98 in 10.0 mi NE 4.6 mph - N/A   Mostly Cloudy
6:35 AM 66.2 °F 59.0 °F 78% 29.99 in 10.0 mi NE 3.5 mph - N/A   Scattered Clouds
6:55 AM 68.0 °F 59.0 °F 73% 29.99 in 10.0 mi NE 4.6 mph - N/A   Scattered Clouds
7:00 AM 68.0 °F 60.8 °F 78% 29.99 in 10.0 mi NNE 5.8 mph - N/A   Scattered Clouds
7:15 AM 68.0 °F 59.0 °F 73% 29.99 in 10.0 mi NE 8.1 mph - N/A   Overcast
7:45 AM 69.8 °F 60.8 °F 73% 29.99 in 10.0 mi NNE 6.9 mph - N/A   Mostly Cloudy
8:45 AM 71.6 °F 60.8 °F 69% 29.98 in 10.0 mi NNE 9.2 mph - N/A   Clear
9:45 AM 73.4 °F 60.8 °F 65% 29.98 in 10.0 mi NNE 8.1 mph - N/A   Scattered Clouds
11:45 AM 77.0 °F 51.8 °F 41% 30.01 in 10.0 mi NE 10.4 mph - N/A   Scattered Clouds
12:45 PM 77.0 °F 50.0 °F 39% 30.01 in 10.0 mi NE 8.1 mph - N/A   Scattered Clouds
1:45 PM 78.8 °F 42.8 °F 28% 30.00 in 10.0 mi ENE 9.2 mph 17.3 mph N/A   Clear
2:45 PM 78.8 °F 42.8 °F 28% 29.99 in 10.0 mi NE 11.5 mph - N/A   Clear
3:45 PM 80.6 °F 44.6 °F 28% 30.00 in 10.0 mi NE 10.4 mph - N/A   Clear
4:45 PM 80.6 °F 44.6 °F 28% 30.00 in 10.0 mi ENE 9.2 mph - N/A   Clear
5:45 PM 78.8 °F 44.6 °F 30% 29.99 in 10.0 mi NE 10.4 mph - N/A   Clear
6:45 PM 73.4 °F 50.0 °F 44% 30.01 in 10.0 mi NE 11.5 mph 17.3 mph N/A   Clear
7:45 PM 69.8 °F 55.4 °F 60% 30.02 in 10.0 mi NE 6.9 mph - N/A   Clear
8:45 PM 69.8 °F 53.6 °F 56% 30.03 in 10.0 mi ENE 5.8 mph - N/A   Clear
8:55 PM 68.0 °F 51.8 °F 56% 30.03 in 10.0 mi ENE 4.6 mph - N/A   Clear
9:15 PM 68.0 °F 51.8 °F 56% 30.03 in 10.0 mi NE 4.6 mph - N/A   Clear
9:35 PM 68.0 °F 50.0 °F 52% 30.02 in 10.0 mi NE 5.8 mph - N/A   Clear
9:55 PM 68.0 °F 51.8 °F 56% 30.02 in 10.0 mi NNE 5.8 mph - N/A   Clear
10:15 PM 66.2 °F 51.8 °F 60% 30.02 in 10.0 mi North 3.5 mph - N/A   Clear
10:35 PM 64.4 °F 53.6 °F 68% 30.03 in 10.0 mi Calm Calm - N/A   Clear
10:55 PM 64.4 °F 53.6 °F 68% 30.03 in 10.0 mi North 3.5 mph - N/A   Clear
11:15 PM 64.4 °F 53.6 °F 68% 30.04 in 10.0 mi North 4.6 mph - N/A   Clear
11:35 PM 64.4 °F 53.6 °F 68% 30.04 in 10.0 mi North 4.6 mph - N/A   Clear
11:55 PM 64.4 °F 55.4 °F 73% 30.04 in 10.0 mi NNE 6.9 mph - N/A   Clear